User: anonymous
Location: Plum
(40.5000°N, 79.7500°W)
Time: 09:35:46
(UTC-04:00)
Language:

Cosmos 1825 - Orbit

View from above orbital plane
View from above orbital plane
View from above satellite
View from above satellite

Ground track
Ground track

The orbit data is extracted from the following two-line orbital elements,

1 17566U 87024A   14107.89761854  .00006406  00000-0  37262-3 0  9738
2 17566 082.5097 352.0502 0003616 256.5871 231.4814 15.11895075478649
Epoch (UTC): 17 April 2014 21:32:34
Eccentricity: 0.0003616
inclination: 82.5097°
perigee height: 528 km
apogee height: 533 km
right ascension of ascending node: 352.0502°
argument of perigee: 256.5871°
revolutions per day: 15.11895075
mean anomaly at epoch: 231.4814°
orbit number at epoch: 47864

The dashed part of the orbit path shows where the satellite is in the earth's shadow,  

DLR